Miscellaneous Local Product
Issued by NWS Hastings, NE

Home | Current Version | Previous Version | Text Only | Print | Product List | Glossary On
Versions: 1 2 3 4 5 6 7 8 9 10 11 12 13 14 15 16 17 18 19 20 21 22 23 24 25 26 27 28 29 30 31 32 33 34 35 36 37 38 39 40 41 42 43 44 45 46 47 48 49 50
000
AXUS43 KGID 050302
MISGRI

GID CWA HOURLY WEATHER ROUNDUP
NATIONAL WEATHER SERVICE HASTINGS NE
1000 PM CDT MON MAY 04 2015

NOTE: "FAIR" INDICATES FEW OR NO CLOUDS BELOW 12,000 FEET WITH NO
SIGNIFICANT WEATHER AND/OR OBSTRUCTIONS TO VISIBILITY.

...SOUTH CENTRAL NEBRASKA...

CITY           SKY/WX    TMP DP  RH WIND       PRES   REMARKS
GRAND ISLAND   CLOUDY    54  53  97 NE7       30.11R FOG
HASTINGS       CLOUDY    56  53  90 E7        30.09R
KEARNEY        CLOUDY    54  50  87 E12       30.11R
ORD            CLOUDY    54  48  80 E9        30.10R
YORK           CLOUDY    57  55  94 E9        30.06R FOG
AURORA         CLOUDY    56  56 100 NE6       30.10R FOG
LEXINGTON      CLOUDY    53  51  94 E9        30.12R FOG
HOLDREGE       CLOUDY    54  52  92 E8        30.09S FOG
HEBRON         RAIN      60  58  91 CALM      30.07R

...NEBRASKA PANHANDLE...

CITY           SKY/WX    TMP DP  RH WIND       PRES   REMARKS
CHADRON        PTCLDY    46  43  89 CALM      30.09F
ALLIANCE       PTCLDY    47  35  63 SE9       30.11R
SCOTTSBLUFF    CLEAR     51  38  60 SE13      30.10R
SIDNEY         CLOUDY    47  40  76 SE9       30.13S

...WESTERN AND NORTH CENTRAL NEBRASKA...

CITY           SKY/WX    TMP DP  RH WIND       PRES   REMARKS
VALENTINE      MOCLDY    55  34  45 S8        30.12R
AINSWORTH      CLOUDY    55  36  48 SE5       30.12R
ONEILL         CLOUDY    58  45  63 SE5       30.11S
BROKEN BOW     CLOUDY    54  49  83 NE5       30.12R
IMPERIAL       CLOUDY    49  45  86 E7        30.11R
NORTH PLATTE   CLOUDY    51  47  86 NE9       30.10R
MCCOOK         CLOUDY    54  50  86 NE14      30.10R

...EASTERN NEBRASKA...

CITY           SKY/WX    TMP DP  RH WIND       PRES   REMARKS
NORFOLK        CLOUDY    56  51  84 E6        30.10R
SO SIOUX CITY  CLOUDY    58  49  72 E7        30.11R
TEKAMAH        CLOUDY    58  55  90 N5        30.07S
COLUMBUS       CLOUDY    55  48  76 NE10      30.10R
ALBION         CLOUDY    55  50  85 E8        30.11R
OMAHA EPPLEY   CLOUDY    60  56  86 E10       30.07R
OFFUTT AFB     CLOUDY    60  57  88 NE13      30.06R
MILLARD        CLOUDY    60  56  89 CALM      30.06R
LINCOLN        CLOUDY    60  57  89 E8        30.07R FOG
NEBRASKA CITY  LGT RAIN  63  63 100 E7        30.05R
BEATRICE       CLOUDY    62  61  96 E6        30.04R FOG
FALLS CITY     LGT RAIN  64  61  90 S14       30.06R

...NORTHERN KANSAS...

CITY           SKY/WX    TMP DP  RH WIND       PRES   REMARKS
GOODLAND       CLOUDY    52  45  77 NE13      30.11R
HILL CITY      CLOUDY    59  53  80 E12       30.11R
NORTON         CLOUDY    55  48  76 NE8       30.10R
PHILLIPSBURG   CLOUDY    61  55  82 NE6       30.09R
SMITH CENTER   DRIZZLE   59  55  88 CALM      30.08R
HAYS           CLOUDY    63  52  67 N5        30.07R
RUSSELL        RAIN      62  59  90 NE9       30.05R
CONCORDIA      CLOUDY    63  60  90 E9        30.05R
SALINA         TSTM      64  61  90 SW10      30.07R FOG
TOPEKA         CLOUDY    64  60  87 E3        30.11R THUNDER



USA.gov is the U.S. government's official web portal to all federal, state and local government web resources and services.